Regional Weather Roundup
Issued by NWS

Home | Current Version | Previous Version | Text Only | Print | Product List | Glossary Off
Versions: 1 2 3 4 5 6 7 8 9 10 11 12 13 14 15 16 17 18 19 20 21 22 23 24 25 26 27 28 29 30 31 32 33 34 35 36 37 38 39 40 41 42 43 44 45 46 47 48 49 50

000
ASUS45 KTFX 242319
RWRMT
MONTANA HOURLY WEATHER ROUNDUP
NATIONAL WEATHER SERVICE GREAT FALLS MT
419 PM MST WED DEC 24 2014

NOTE: "FAIR" INDICATES FEW OR NO CLOUDS BELOW 12000 FEET WITH NO
SIGNIFICANT WEATHER AND/OR OBSTRUCTIONS TO VISIBILITY.

* THESE STATIONS ARE NOT UNDER NWS QUALITY CONTROL. THEY DO NOT
   REPORT WEATHER SUCH AS PRECIPITATION OR FOG.

MTZ001>007-043-250000-
WEST OF THE DIVIDE
CITY           SKY/WX    TMP DP  RH WIND       PRES   REMARKS
KALISPELL      LGT SNOW  34  30  85 N9        29.52S WCI  27
MISSOULA       LGT RAIN  36  36 100 CALM      29.50S
BUTTE          CLOUDY    34  23  64 S8        29.44F WCI  27
MULLAN PASS    LGT SNOW  27  23  85 N9G18     29.46S VSB M1/4 WCI  18
* ESSEX        N/A       32  29  89 N/A        N/A
* HAMILTON APT CLOUDY    37  36  96 NW3       29.47S
* LIBBY APT    CLOUDY    34  30  85 CALM      29.59R
* LINCOLN      N/A       35  33  92 S5         N/A   WCI  31
* LOOKOUT PASS N/A       29  28  96 N8         N/A   WCI  21
* POLSON       N/A       32  32 100 N2         N/A
* RONAN APT    CLOUDY    34  30  85 N6         N/A   WCI  29
* SEELEY LAKE  N/A       35  33  92 S2         N/A
* THOMP F APT  CLOUDY    23  18  81 E4G9       N/A
* YAAK HILL    N/A       35  32  89 N1         N/A
$$

MTZ008-052>055-250000-
SOUTHWEST MONTANA
CITY           SKY/WX    TMP DP  RH WIND       PRES   REMARKS
BOZEMAN        CLOUDY    37  25  62 SE7       29.45F WCI  32
DILLON         CLOUDY    34  21  59 S7        29.46F WCI  28
* W YELLOWSTON CLOUDY    22  19  88 N/A        N/A
* THREE FORKS  CLOUDY    39  25  57 S30G48     N/A   WCI  27
* BOULDER HILL N/A       35  17  48 SW17G24    N/A   WCI  25
* MONIDA PASS  N/A       20  19  96 SE23G30    N/A   WCI   3
* RAYNOLDS PAS N/A       22   7  52 S13G19     N/A   WCI  10
* WHITEHALL    N/A       40  20  45 SW18G27    N/A   WCI  31
* WISE RIVER   N/A       35  23  62 SE6G15     N/A   WCI  30
$$

MTZ009>010-012-014-046-048-049-054-250000-
EAST SLOPES AND CENTRAL MONTANA
CITY           SKY/WX    TMP DP  RH WIND       PRES   REMARKS
CUT BANK       LGT SNOW  30  28  92 W7        29.54R VSB 1 1/2 WCI  23
GREAT FALLS    LGT SNOW  30  30 100 N8        29.49S VSB 1/2  WCI  22
HELENA         LGT SNOW  36  32  85 W9        29.46R WCI  29
MALMSTROM AFB  LGT SNOW  32  32 100 N7        29.52R VSB 1 1/4 WCI  25
* CONRAD       CLOUDY    32  32 100 W6         N/A   WCI  26
* DEARBORN     N/A       32  32 100 VRB7G12    N/A   WCI  25
* EAST GLACIER N/A       27  25  92 NE4        N/A
* MONARCH      N/A       29  26  89 NW5        N/A   WCI  24
* PENDROY      N/A       29  29 100 N9G14      N/A   WCI  21
* ROGERS PASS  N/A       27  25  92 N/A        N/A
* SWEET GRASS  N/A       32  29  89 NE4        N/A
* WHITE SULPH  N/A       38  21  50 SW11G23    N/A   WCI  31
$$

MTZ011-013-016-021-035-040-045-047-050-051-250000-
NORTH CENTRAL MONTANA
CITY           SKY/WX    TMP DP  RH WIND       PRES   REMARKS
HAVRE          CLOUDY    34  34 100 SW5       29.53S WCI  29
LEWISTOWN      SNOW      34  32  92 NW3       29.46S VSB 1/2
* N BAR RANCH  FOG       32  32 100 NE7       29.46S VSB M1/4 WCI  25
* CHINOOK      CLOUDY    36  34  92 CALM      29.54R
* CHESTER      N/A       34  31  89 NW2        N/A
* DENTON       N/A       32  31  96 N5         N/A   WCI  27
* GEYSER       N/A       32  31  96 NE3        N/A
* JUDITH GAP   N/A       32  32 100 NW12       N/A   WCI  23
* LOMA         N/A       33  33 100 NW4        N/A
$$

MTZ017>020-022>027-061-062-250000-
NORTHEAST MONTANA
CITY           SKY/WX    TMP DP  RH WIND       PRES   REMARKS
GLASGOW        CLOUDY    34  28  79 N6        29.51R WCI  29
GLENDIVE       CLOUDY    36  32  85 CALM      29.50R
JORDAN         CLOUDY    34  34 100 NW5       29.50S WCI  29
SIDNEY         CLOUDY    36  28  73 NW7       29.50R WCI  30
WOLF POINT     CLOUDY    36  30  79 SW5       29.51R WCI  32
* BEAVER HILL  N/A       33  30  89 SW9        N/A   WCI  25
* CIRCLE       N/A       36  33  89 N/A        N/A
* LINDSAY DVD  N/A       34  33  96 W4         N/A
* NAVAJO       N/A       29  23  78 NW7        N/A   WCI  22
* PLENTYWOOD A PTCLDY    27  21  78 NW6       29.48R WCI  20
* POPLAR APT   PTSUNNY   34  30  85 N/A       29.50S
* SACO         N/A       37  29  73 W2         N/A
$$

MTZ028>042-056>058-250000-
SOUTHCENTRAL AND SOUTHEAST MONTANA
CITY           SKY/WX    TMP DP  RH WIND       PRES   REMARKS
BAKER          CLOUDY    36  28  73 NW7       29.47F WCI  30
BILLINGS       CLOUDY    41  18  39 SW17      29.42F
LIVINGSTON     CLOUDY    39  21  48 SW40G51   29.41S WCI  26
MILES CITY     CLOUDY    36  30  79 N6        29.48S WCI  31
* BIG TIMBER A CLOUDY    39  19  45 W14       29.43F WCI  31
* FORSYTH APT  CLOUDY    39  30  70 N7        29.47S WCI  34
* LAUREL APT   CLOUDY    39  14  36 SW7        N/A   WCI  34
* ROUNDUP APT  CLOUDY    39  30  70 N5         N/A   WCI  35
* ALZADA       N/A       38  27  65 NE2        N/A
* HYSHAM       N/A       41  18  39 NE4G9      N/A
* LAME DEER    N/A       37  21  52 N4         N/A
* REED POINT   N/A       41  23  49 N/A        N/A
* ROSCOE HILL  N/A       40  11  30 S19G30     N/A   WCI  31
$$

REGIONAL REPORTS...DAKOTAS
CITY           SKY/WX    TMP DP  RH WIND       PRES   REMARKS
WILLISTON      PTCLDY    32  27  82 NW9       29.47S WCI  24
DICKINSON      CLOUDY    36  30  79 NW9       29.45R WCI  29
BEACH          CLOUDY    32  32 100 W6        29.48R WCI  26
CROSBY         SUNNY     27  25  92 W8        29.47S WCI  19
TIOGA          SUNNY     27  27 100 NW8       29.48R WCI  19
WATFORD CITY   SUNNY     34  28  79 W8        29.45S WCI  27
BISMARCK       CLOUDY    34  27  76 CALM      29.47F
GRAND FORKS    CLOUDY    27  27 100 S12       29.52F WCI  16
FARGO          FOG       28  25  89 S12       29.56F WCI  18
BUFFALO SD     PTSUNNY   37  28  70 W7        29.41S WCI  32
RAPID CITY     CLOUDY    36  27  70 SE3       29.49F
$$

REGIONAL REPORTS...WYOMING/IDAHO/WASHINGTON
CITY           SKY/WX    TMP DP  RH WIND       PRES   REMARKS
GILLETTE       CLOUDY    37  23  57 SW16      29.48F WCI  28
SHERIDAN       CLOUDY    36  27  70 CALM      29.44F
CODY           CLOUDY    28  21  75 NE7       29.48F WCI  21
YELLOWSTONE LA CLOUDY    21  19  92 CALM      29.61F
SALMON         CLOUDY    30  28  92 CALM      29.51F VSB 1 1/4
MULLAN PASS    LGT SNOW  27  23  85 N9G18     29.46S VSB M1/4 WCI  18
SAND POINT     CLOUDY    34  34 100 CALM      29.63R
SPOKANE        CLOUDY    37  34  89 W10       29.64R WCI  30
$$

REGIONAL REPORTS...ALBERTA
CITY           SKY/WX    TMP DP  RH WIND       PRES   REMARKS
CALGARY        PTCLDY    28  16  61 NW3       29.59R
LETHBRIDGE     CLOUDY    32  27  82 N7        29.57R WCI  25
MEDICINE HAT   PTSUNNY   34  28  79 N6        29.57R WCI  29
EDMONTON       LGT SNOW  25  21  85 N15       29.64R VSB 2 1/2 WCI  13
WATERTON GATE  N/A       28  25  89 NE16G24    N/A   WCI  16
CARDSTON       N/A       32  28  85 N8         N/A   WCI  25
MILK RIVER     N/A       32  28  85 N6         N/A   WCI  26
$$

REGIONAL REPORTS...SASKATCHEWAN
CITY           SKY/WX    TMP DP  RH WIND       PRES   REMARKS
SWIFT CURRENT  SUNNY     25  21  85 W8        29.49S WCI  16
REGINA         PTCLDY    27  23  85 W12       29.44S WCI  16
VAL MARIE      N/A       34  28  79 N6         N/A   WCI  29
ASSINIBOIA     N/A       21  18  88 W9         N/A   WCI  11

$$



USA.gov is the U.S. government's official web portal to all federal, state and local government web resources and services.